[[{"header":{"parameterUnit":"m.s-1","parameterCategory":1,"la1":30.2991,"la2":30.254,"lo1":-89.0895,"lo2":-89.0444,"dy":0.0017,"dx":0.0017,"nx":28,"ny":28,"refTime":"2025-08-31T21:00:00:Z","depth":0,"parameterNumber":2,"parameterNumberName":"U-component_of_WINDS"},"data":[0,0,0,0,0,0,0,0,0,0,0,0,0,0,0,0,0,0,0,0,0,0,0,0,0,0,0,0,0,0,0,0,0,0,0,0,0,0,0,0,0,0,0,0,0,0,0,0,0,0,0,0,0,0,0,0,0,0,-1.0356,-1.0355,0,-1.0328,-1.0328,-1.0328,-1.028,-1.0279,-1.0278,-1.0277,-1.0251,-1.0252,-1.0252,0,0,0,0,0,0,0,0,0,0,0,0,0,-1.037,-1.037,-1.0356,-1.0355,-1.0355,-1.0328,-1.0328,-1.0327,-1.028,-1.0279,-1.0278,-1.0277,-1.0251,-1.0251,-1.0252,0,0,0,0,0,0,0,0,0,0,0,0,0,-1.0355,-1.037,-1.0356,-1.0328,-1.0325,-1.0328,-1.0328,-1.0327,-1.028,-1.0279,-1.0277,-1.0276,-1.0251,-1.0251,-1.0252,-1.0281,0,0,-1.0252,-1.0253,0,0,0,0,0,0,0,0,-1.0356,-1.0355,-1.0332,-1.033,-1.0327,-1.0306,-1.0323,-1.0312,-1.028,-1.0297,-1.0277,-1.0275,-1.0271,-1.0269,-1.0267,-1.0279,-1.0278,-1.0253,-1.0253,-1.0253,-1.0253,0,0,0,0,0,0,0,-1.0357,-1.0356,-1.0345,-1.0332,-1.0329,-1.0318,-1.0314,-1.0321,-1.0292,-1.0296,-1.0292,-1.0289,-1.0269,-1.0267,-1.0266,-1.0278,-1.0253,-1.0253,-1.0253,-1.0253,-1.0314,-1.0315,0,0,0,0,0,0,-1.0362,-1.0357,-1.0346,-1.0344,-1.0338,-1.0319,-1.0315,-1.0314,-1.0292,-1.0287,-1.0291,-1.0287,-1.0267,-1.0266,-1.0265,-1.0299,-1.0253,-1.0253,-1.0253,-1.0313,-1.0314,-1.0316,0,0,0,0,0,0,-1.0362,-1.0361,-1.0347,-1.0349,-1.0347,-1.032,-1.032,-1.0314,-1.0312,-1.0288,-1.0283,-1.0294,-1.0266,-1.0265,-1.0277,-1.0298,-1.0253,-1.0253,-1.0311,-1.0313,-1.0315,-1.0367,0,0,0,0,0,0,-1.0363,-1.0362,-1.0372,-1.035,-1.0347,-1.0359,-1.0321,-1.0315,-1.0313,-1.0308,-1.029,-1.0285,-1.0265,-1.0277,-1.0278,-1.0297,-1.0254,-1.0309,-1.0312,-1.0314,-1.0363,-1.0371,-1.0377,0,0,0,0,0,-1.0364,-1.0388,-1.0373,-1.0372,-1.0359,-1.036,-1.0359,-1.0334,-1.0314,-1.0325,-1.0309,-1.0286,-1.0295,-1.0279,-1.0279,-1.0299,-1.0308,-1.0311,-1.0314,-1.036,-1.0369,-1.0377,0,0,0,0,0,0,-1.0414,-1.0385,-1.0367,-1.0385,-1.0375,-1.0352,-1.0365,-1.0344,-1.034,-1.0336,-1.0306,-1.0303,-1.032,-1.031,-1.0293,-1.0326,-1.0298,-1.0301,-1.0333,-1.0341,-1.0347,-1.0351,-1.0254,0,0,0,0,0,-1.0427,-1.043,-1.0404,-1.0422,-1.0418,-1.0392,-1.0392,-1.0374,-1.0363,-1.0359,-1.0344,-1.0335,-1.0336,-1.0337,-1.0337,-1.0361,-1.0357,-1.0374,-1.0381,-1.0387,-1.0391,-1.0405,-1.0413,-1.0327,-1.0327,-1.0327,0,0,-1.0454,-1.0438,-1.0442,-1.0432,-1.0422,-1.0427,-1.0389,-1.0396,-1.0399,-1.036,-1.0371,-1.036,-1.0348,-1.0367,-1.0375,-1.036,-1.0414,-1.0391,-1.0396,-1.0397,-1.0409,-1.0418,-1.0425,-1.0329,-1.0329,-1.0328,0,0,-1.0507,-1.0494,-1.0509,-1.05,-1.0485,-1.0468,-1.0472,-1.0451,-1.0442,-1.0453,-1.0424,-1.0427,-1.0429,-1.0422,-1.0419,-1.0469,-1.0448,-1.0469,-1.0506,-1.052,-1.0527,-1.0533,-1.0553,-1.056,-1.0473,-1.0473,-1.0473,0,-1.0544,-1.0549,-1.052,-1.0528,-1.0525,-1.0488,-1.0504,-1.0496,-1.0483,-1.0482,-1.0465,-1.0467,-1.0456,-1.0474,-1.0486,-1.0483,-1.0488,-1.0473,-1.0528,-1.0533,-1.0539,-1.0558,-1.0565,-1.0476,-1.0476,-1.0475,-1.0475,0,-1.0595,-1.0599,-1.0613,-1.06,-1.0598,-1.061,-1.0584,-1.0585,-1.0567,-1.0552,-1.0564,-1.0549,-1.0546,-1.0548,-1.053,-1.0563,-1.0555,-1.0533,-1.0504,-1.055,-1.0568,-1.0574,-1.048,-1.0479,-1.0478,-1.0478,0,0,-1.0682,-1.0652,-1.0658,-1.0652,-1.0633,-1.0636,-1.0646,-1.0642,-1.0645,-1.0636,-1.0646,-1.0647,-1.0627,-1.0624,-1.0604,-1.0616,-1.0659,-1.0593,-1.0592,-1.0608,-1.0698,-1.0717,-1.0726,-1.0644,-1.0645,-1.0646,-1.07,0,-1.0733,-1.0749,-1.0722,-1.0745,-1.0749,-1.0714,-1.0723,-1.0713,-1.0699,-1.0701,-1.0685,-1.0688,-1.066,-1.0658,-1.0667,-1.0652,-1.0678,-1.0647,-1.0655,-1.0656,-1.0662,-1.0734,-1.0754,-1.0805,-1.0706,-1.0707,-1.0708,0,-1.0795,-1.0789,-1.0812,-1.0792,-1.0793,-1.0802,-1.0796,-1.0798,-1.0786,-1.0775,-1.0771,-1.0748,-1.0758,-1.0727,-1.0742,-1.0722,-1.0723,-1.0716,-1.0717,-1.072,-1.0687,-1.0741,-1.0821,-1.083,-1.0718,-1.0717,-1.0717,0,-1.0859,-1.0857,-1.0871,-1.0866,-1.0843,-1.085,-1.0841,-1.0827,-1.0826,-1.0821,-1.0821,-1.0817,-1.0816,-1.0814,-1.0791,-1.0771,-1.0809,-1.0777,-1.0802,-1.0803,-1.0815,-1.0815,-1.0899,-1.081,-1.081,-1.081,-1.081,0,-1.0921,-1.0937,-1.0899,-1.0908,-1.0926,-1.0895,-1.0913,-1.09,-1.0888,-1.0895,-1.0863,-1.087,-1.0838,-1.0842,-1.0823,-1.084,-1.0838,-1.0831,-1.0827,-1.0836,-1.0837,-1.0839,-1.0836,-1.0812,-1.0812,-1.0811,-1.0811,0,-1.0997,-1.0972,-1.0985,-1.0961,-1.0955,-1.097,-1.095,-1.0958,-1.094,-1.0949,-1.0949,-1.0923,-1.0926,-1.0902,-1.09,-1.0888,-1.0914,-1.0902,-1.0918,-1.0916,-1.0944,-1.0943,-1.1034,-1.1046,-1.0947,-1.0948,-1.0949,0,-1.104,-1.1052,-1.1029,-1.103,-1.1022,-1.1025,-1.1024,-1.0994,-1.0995,-1.0982,-1.0992,-1.0992,-1.099,-1.0997,-1.0979,-1.0977,-1.0967,-1.0999,-1.0967,-1.0976,-1.0971,-1.0972,-1.0974,-1.1007,-1.1008,-1.1009,-1.101,0,-1.112,-1.1106,-1.1106,-1.1101,-1.11,-1.1095,-1.1088,-1.1091,-1.1058,-1.1061,-1.1063,-1.1062,-1.106,-1.1061,-1.1056,-1.1047,-1.1025,-1.1019,-1.1026,-1.1037,-1.1047,-1.1045,-1.094,-1.1018,-1.1017,-1.1017,-1.1016,-1.1016,-1.1182,-1.1191,-1.1177,-1.1177,-1.1168,-1.1162,-1.1169,-1.1152,-1.1153,-1.1149,-1.1131,-1.1137,-1.1125,-1.1116,-1.1109,-1.1114,-1.1099,-1.1108,-1.111,-1.1114,-1.112,-1.1044,-1.1113,-1.1112,-1.1112,-1.1112,-1.1112,0,-1.1263,-1.1251,-1.1252,-1.1243,-1.1243,-1.1218,-1.1209,-1.1212,-1.1217,-1.1207,-1.1207,-1.121,-1.1211,-1.1192,-1.119,-1.1198,-1.1188,-1.1199,-1.12,-1.1199,-1.1133,-1.1129,-1.1208,-1.1208,-1.1208,-1.1208,-1.1208,-1.1208,-1.1305,-1.132,-1.1305,-1.1315,-1.1304,-1.1309,-1.1306,-1.1301,-1.1293,-1.1298,-1.1298,-1.1285,-1.1272,-1.1269,-1.1269,-1.1264,-1.1266,-1.1282,-1.1274,-1.1213,-1.1204,-1.1195,-1.1191,-1.1282,-1.1282,-1.134,-1.1341,-1.1341]},{"header":{"parameterUnit":"m.s-1","parameterCategory":1,"la1":30.2991,"la2":30.254,"lo1":-89.0895,"lo2":-89.0444,"dy":0.0017,"dx":0.0017,"nx":28,"ny":28,"refTime":"2025-08-31T21:00:00:Z","depth":0,"parameterNumber":3,"parameterNumberName":"V-component_of_WINDS"},"data":[0,0,0,0,0,0,0,0,0,0,0,0,0,0,0,0,0,0,0,0,0,0,0,0,0,0,0,0,0,0,0,0,0,0,0,0,0,0,0,0,0,0,0,0,0,0,0,0,0,0,0,0,0,0,0,0,0,0,1.3881,1.388,0,1.3787,1.3786,1.3785,1.3743,1.3743,1.3744,1.3744,1.3641,1.3638,1.3635,0,0,0,0,0,0,0,0,0,0,0,0,0,1.4019,1.4016,1.3881,1.388,1.3878,1.3787,1.3786,1.3784,1.3743,1.3743,1.3744,1.3744,1.3642,1.3638,1.3635,0,0,0,0,0,0,0,0,0,0,0,0,0,1.3945,1.4016,1.3881,1.3847,1.3843,1.3787,1.3786,1.3784,1.3743,1.3743,1.3744,1.3744,1.3643,1.3639,1.3634,1.3603,0,0,1.3621,1.3619,0,0,0,0,0,0,0,0,1.3949,1.394,1.3853,1.3849,1.3845,1.3777,1.3797,1.3723,1.3743,1.3781,1.3744,1.3744,1.3685,1.3678,1.3659,1.3598,1.3594,1.3621,1.3618,1.3616,1.3615,0,0,0,0,0,0,0,1.3954,1.3944,1.3843,1.3852,1.3847,1.3835,1.3824,1.3782,1.3733,1.3778,1.3774,1.3764,1.3683,1.3664,1.3657,1.3592,1.3621,1.3617,1.3614,1.3613,1.3501,1.3501,0,0,0,0,0,0,1.3966,1.3948,1.3846,1.3841,1.3899,1.3832,1.3821,1.3798,1.3733,1.3724,1.3764,1.3763,1.3671,1.3662,1.3653,1.3612,1.3616,1.3612,1.361,1.3502,1.3501,1.3501,0,0,0,0,0,0,1.3969,1.3957,1.385,1.3894,1.3879,1.3829,1.3805,1.3797,1.3777,1.3723,1.3713,1.3754,1.3671,1.3659,1.3616,1.3608,1.361,1.3606,1.3502,1.3502,1.3501,1.3531,0,0,0,0,0,0,1.3973,1.3959,1.3948,1.3894,1.3877,1.3817,1.3804,1.3795,1.377,1.3768,1.3711,1.3701,1.367,1.3623,1.3612,1.3602,1.3603,1.3503,1.3502,1.3501,1.353,1.3531,1.3532,0,0,0,0,0,1.3978,1.3958,1.3947,1.3935,1.3862,1.3817,1.3807,1.3773,1.377,1.3758,1.3723,1.3703,1.3611,1.3619,1.3606,1.3595,1.3503,1.3502,1.3501,1.353,1.3531,1.3532,0,0,0,0,0,0,1.4009,1.395,1.3938,1.39,1.3864,1.381,1.3793,1.3775,1.3738,1.3736,1.3694,1.3681,1.3642,1.3614,1.3624,1.3561,1.3555,1.3552,1.3581,1.3582,1.3583,1.359,1.3599,0,0,0,0,0,1.4013,1.3982,1.3931,1.3903,1.3886,1.3843,1.3822,1.3799,1.3759,1.3743,1.3705,1.3666,1.3628,1.3603,1.3565,1.3526,1.3513,1.3512,1.3513,1.3514,1.3511,1.3489,1.3488,1.3498,1.3498,1.3498,0,0,1.4017,1.3981,1.3964,1.3908,1.3878,1.3846,1.383,1.3797,1.3772,1.3737,1.3695,1.3666,1.3619,1.3579,1.3559,1.3554,1.3506,1.3513,1.3515,1.3511,1.3488,1.3487,1.3486,1.3498,1.3498,1.3498,0,0,1.401,1.398,1.3953,1.3924,1.3879,1.385,1.3844,1.3793,1.3773,1.3731,1.3705,1.3674,1.361,1.3577,1.3552,1.3535,1.3515,1.3523,1.3528,1.3506,1.3505,1.3504,1.3498,1.3496,1.3521,1.3521,1.3521,0,1.402,1.3973,1.3941,1.391,1.3885,1.3855,1.3827,1.3799,1.3743,1.3726,1.3722,1.3642,1.3608,1.356,1.3556,1.3537,1.3527,1.3529,1.3509,1.3507,1.3506,1.3499,1.3496,1.3522,1.3522,1.3522,1.3522,0,1.3989,1.3956,1.394,1.389,1.3863,1.3834,1.3795,1.3772,1.3753,1.3724,1.3682,1.3641,1.3594,1.3581,1.356,1.353,1.3528,1.3517,1.351,1.3507,1.3499,1.3497,1.3524,1.3524,1.3523,1.3523,0,0,1.3996,1.393,1.3925,1.3902,1.3851,1.3824,1.3793,1.375,1.3731,1.3694,1.3665,1.3613,1.3603,1.3575,1.355,1.3531,1.352,1.3522,1.352,1.3523,1.3483,1.3492,1.3489,1.3507,1.3506,1.3506,1.3487,0,1.3981,1.3926,1.3897,1.3853,1.3822,1.3794,1.3767,1.3732,1.3705,1.3674,1.3643,1.3606,1.3596,1.3579,1.356,1.3525,1.3511,1.3526,1.3479,1.3477,1.3491,1.3485,1.3493,1.3478,1.3484,1.3484,1.3483,0,1.3956,1.3922,1.3876,1.383,1.3816,1.3792,1.3751,1.3722,1.3681,1.3663,1.3633,1.3609,1.3573,1.357,1.352,1.3531,1.351,1.3491,1.3489,1.3482,1.3479,1.3478,1.3472,1.3469,1.3478,1.3479,1.3479,0,1.3966,1.3908,1.3874,1.3855,1.38,1.3784,1.376,1.372,1.3696,1.3659,1.3644,1.3603,1.358,1.3548,1.3513,1.3514,1.3466,1.346,1.3449,1.345,1.3439,1.344,1.3429,1.3427,1.3427,1.3427,1.3427,0,1.3951,1.3924,1.3878,1.3856,1.3825,1.3791,1.376,1.3733,1.3698,1.367,1.3643,1.3616,1.3573,1.3541,1.3513,1.3476,1.3465,1.3449,1.3441,1.3451,1.3453,1.3435,1.3435,1.3426,1.3427,1.3427,1.3427,0,1.3956,1.3924,1.3884,1.3837,1.3824,1.3803,1.3761,1.3738,1.3711,1.3676,1.3666,1.3622,1.3583,1.3546,1.3493,1.3474,1.3437,1.3428,1.3451,1.3447,1.3438,1.3439,1.3415,1.341,1.3412,1.3412,1.3412,0,1.3949,1.3928,1.3878,1.3859,1.3836,1.3805,1.3781,1.3747,1.3723,1.3677,1.3659,1.3619,1.3585,1.3524,1.3486,1.3446,1.3435,1.3429,1.3428,1.3439,1.3434,1.3435,1.3433,1.3429,1.343,1.343,1.343,0,1.3939,1.3924,1.3893,1.3856,1.3829,1.3798,1.3765,1.375,1.371,1.3684,1.3646,1.362,1.3567,1.3527,1.3483,1.3456,1.3436,1.3431,1.3426,1.3435,1.3449,1.3441,1.3453,1.3431,1.3431,1.3431,1.3431,1.3431,1.3936,1.3916,1.3879,1.3845,1.3818,1.3789,1.3766,1.3737,1.3704,1.3661,1.3642,1.3603,1.3563,1.3502,1.3476,1.3443,1.3438,1.3432,1.343,1.3428,1.343,1.3456,1.3435,1.3435,1.3435,1.3435,1.3435,0,1.3924,1.39,1.3869,1.3826,1.3799,1.3785,1.3749,1.3727,1.3693,1.3659,1.3627,1.3583,1.3544,1.3505,1.3464,1.3445,1.3435,1.3436,1.3436,1.343,1.3437,1.3445,1.3445,1.3445,1.3445,1.3445,1.3445,1.3445,1.3915,1.3881,1.3862,1.3814,1.3789,1.3752,1.3733,1.3705,1.3678,1.3631,1.3599,1.3575,1.3538,1.3495,1.3458,1.3448,1.3433,1.3437,1.3423,1.343,1.3429,1.3429,1.3436,1.3434,1.3434,1.3419,1.3418,1.3418]}]]